Regional Weather Roundup
Issued by NWS

Home | Current Version | Previous Version | Text Only | Print | Product List | Glossary On
Versions: 1 2 3 4 5 6 7 8 9 10 11 12 13 14 15 16 17 18 19 20 21 22 23 24 25 26 27 28 29 30 31 32 33 34 35 36 37 38 39 40 41 42 43 44 45 46 47 48 49 50
000
ASUS43 KTOP 301108
RWRKS

WEATHER ROUNDUP FOR KANSAS
NATIONAL WEATHER SERVICE GOODLAND KS
600 AM CDT SAT JUL 30 2016

NOTE:  "FAIR" INDICATES FEW OR NO CLOUDS BELOW 12,000 FEET WITH NO
SIGNIFICANT WEATHER AND/OR OBSTRUCTIONS TO VISIBILITY.

KSZ001>006-013>018-027>032-041>047-301200-
NORTHWEST KANSAS

CITY           SKY/WX    TMP DP  RH WIND       PRES   REMARKS
GOODLAND       CLEAR     64  61  90 S5        30.03F
HAYS           CLOUDY    70  61  73 S7        30.00F
HILL CITY      PTCLDY    65  64  97 SE3       30.00F
RUSSELL        CLOUDY    68  67  96 S7        29.99F
$$

KSZ061>065-074>080-084>089-301200-
SOUTHWEST KANSAS

CITY           SKY/WX    TMP DP  RH WIND       PRES   REMARKS
DODGE CITY     LGT RAIN  69  66  90 S5        30.03R
ELKHART          N/A     63  58  84 W3          N/A
GARDEN CITY    PTCLDY    70  64  81 SW7       30.03F
GREAT BEND     CLOUDY    70  63  78 CALM      30.01R
LIBERAL        CLOUDY    68  61  77 SE5       30.04F
PRATT          CLOUDY    68  65  91 S5        30.02S
$$

KSZ066>073-081>083-090>101-301200-
SOUTHEAST KANSAS

CITY           SKY/WX    TMP DP  RH WIND       PRES   REMARKS
CHANUTE        CLEAR     67  66  97 CALM      29.99S FOG
COFFEYVILLE    CLEAR     69  68  96 CALM      29.99R
HUTCHINSON     PTCLDY    69  67  93 E3        29.99F
MEDICINE LODGE   N/A     71  68  90 CALM      29.99
NEWTON         PTCLDY    69  68  96 E6        30.01F
PARSONS        CLEAR     68  67  96 NE3       30.00R
WICHITA INTL   MOCLDY    73  69  87 SE5       29.99S
WICHITA JABRA  MOCLDY    68  68 100 CALM      29.99F FOG
WICHITA MCCONL MOCLDY    72  68  89 SE5       29.99S
WINFIELD       CLOUDY    73  69  87 CALM      29.99F
$$

KSZ007>012-019>026-033>040-048>060-102>105-301200-
NORTHEAST KANSAS

CITY           SKY/WX    TMP DP  RH WIND       PRES   REMARKS
CONCORDIA      CLOUDY    67  64  90 E3        30.01S
EMPORIA        CLEAR     67  66  97 CALM      30.00F
LAWRENCE       CLEAR     62  61  96 NW3       30.01R
MANHATTAN      CLOUDY    67  65  93 NE3       30.00F
MARYSVILLE     MOCLDY    63  61  94 CALM      30.01F
OLATHE IND     PTCLDY    64  63  96 CALM      30.01S
OLATHE EXE     CLEAR     66  62  87 NE6       30.01S
SALINA         CLOUDY    72  68  87 E5        29.99F
TOPEKA BILLARD CLEAR     64  62  93 N3        30.00S
TOPEKA FORBES  CLOUDY    66  62  87 NE3       30.01R
$$




USA.gov is the U.S. government's official web portal to all federal, state and local government web resources and services.